When you browse on this site, cookies collect data to enhance your experience and personalize the content and advertising you see.
Visit our Privacy Policy to learn more. By continuing to use the site, you agree to this use of cookies and data.
  • In Österreich
  • Länderverzeichnis
  • Für 7 Tage
  • Wassertemperatur
  • Satellitenkarten
  • Wetterkarte
  • News
  • Widgets
  • user-avatar
    Anmelden

    Stündliche Wetter Pobeda

    Heute, 21 November, Mittwoch

    Zeit Temperatur Niederschläge Wind Luftdruck Luftfeuchtigkeit
    00:00 -5°C° 0 mm 3 m/S 750 mmHg 76%
    01:00 -5°C° 0 mm 3 m/S 750 mmHg 79%
    02:00 -5°C° 0 mm 3 m/S 750 mmHg 82%
    03:00 -5°C° 0 mm 3 m/S 750 mmHg 83%
    04:00 -5°C° 0 mm 3 m/S 750 mmHg 84%
    05:00 -4°C° 0 mm 3 m/S 750 mmHg 84%
    06:00 -4°C° 0 mm 3 m/S 750 mmHg 85%
    07:00 -4°C° 0 mm 3 m/S 750 mmHg 85%
    08:00 -3°C° 0 mm 2 m/S 750 mmHg 85%
    09:00 -2°C° 0 mm 2 m/S 751 mmHg 83%
    10:00 -2°C° 0 mm 2 m/S 751 mmHg 82%
    11:00 -2°C° 0 mm 2 m/S 751 mmHg 80%
    12:00 -2°C° 0 mm 2 m/S 751 mmHg 81%
    13:00 -2°C° 0 mm 2 m/S 751 mmHg 81%
    14:00 -2°C° 0 mm 2 m/S 751 mmHg 82%
    15:00 -2°C° 0 mm 2 m/S 751 mmHg 84%
    16:00 -4°C° 0 mm 3 m/S 750 mmHg 85%
    17:00 -4°C° 0 mm 3 m/S 750 mmHg 87%
    18:00 -4°C° 0 mm 3 m/S 750 mmHg 86%
    19:00 -4°C° 0 mm 3 m/S 750 mmHg 85%
    20:00 -4°C° 0 mm 3 m/S 750 mmHg 84%
    21:00 -4°C° 0 mm 3 m/S 749 mmHg 83%
    22:00 -4°C° 0 mm 3 m/S 749 mmHg 82%
    23:00 -2°C° 0 mm 3 m/S 749 mmHg 81%

    Morgen, 22 November, Donnerstag

    Zeit Temperatur Niederschläge Wind Luftdruck Luftfeuchtigkeit
    00:00 -4°C° 0 mm 3 m/S 748 mmHg 82%
    01:00 -4°C° 0 mm 3 m/S 748 mmHg 82%
    02:00 -4°C° 0 mm 4 m/S 748 mmHg 83%
    03:00 -4°C° 0 mm 4 m/S 747 mmHg 83%
    04:00 -5°C° 0 mm 4 m/S 747 mmHg 84%
    05:00 -5°C° 0 mm 4 m/S 747 mmHg 84%
    06:00 -5°C° 0 mm 4 m/S 746 mmHg 85%
    07:00 -5°C° 0 mm 4 m/S 746 mmHg 85%
    08:00 -5°C° 0 mm 4 m/S 746 mmHg 85%
    09:00 -4°C° 0 mm 4 m/S 746 mmHg 83%
    10:00 -5°C° 0 mm 5 m/S 745 mmHg 81%
    11:00 -4°C° 0 mm 5 m/S 745 mmHg 79%
    12:00 -4°C° 0 mm 5 m/S 745 mmHg 78%
    13:00 -4°C° 0 mm 5 m/S 744 mmHg 78%
    14:00 -4°C° 0 mm 5 m/S 744 mmHg 77%
    15:00 -2°C° 0 mm 5 m/S 744 mmHg 78%
    16:00 -2°C° 0 mm 5 m/S 744 mmHg 79%
    17:00 -2°C° 0 mm 5 m/S 744 mmHg 81%
    18:00 -2°C° 0 mm 5 m/S 744 mmHg 81%
    19:00 -2°C° 0 mm 5 m/S 744 mmHg 82%
    20:00 -2°C° 0 mm 4 m/S 744 mmHg 83%
    21:00 -2°C° 0 mm 4 m/S 745 mmHg 83%
    22:00 -2°C° 0 mm 4 m/S 745 mmHg 83%
    23:00 -2°C° 0 mm 4 m/S 745 mmHg 84%

    übermorgen, 23 November, Freitag

    Zeit Temperatur Niederschläge Wind Luftdruck Luftfeuchtigkeit
    00:00 -2°C° 0 mm 4 m/S 746 mmHg 84%
    01:00 -1°C° 0 mm 3 m/S 746 mmHg 84%
    02:00 -2°C° 0 mm 3 m/S 747 mmHg 84%
    03:00 -4°C° 0 mm 3 m/S 747 mmHg 86%
    04:00 -4°C° 0 mm 3 m/S 748 mmHg 88%
    05:00 -4°C° 0 mm 2 m/S 748 mmHg 90%
    06:00 -4°C° 0 mm 2 m/S 748 mmHg 90%
    07:00 -4°C° 0 mm 2 m/S 749 mmHg 90%
    08:00 -5°C° 0 mm 2 m/S 749 mmHg 91%
    09:00 -2°C° 0 mm 1 m/S 750 mmHg 86%
    10:00 -1°C° 0 mm 1 m/S 750 mmHg 81%
    11:00 -1°C° 0 mm 1 m/S 750 mmHg 77%
    12:00 -1°C° 0 mm 1 m/S 750 mmHg 76%
    13:00 0°C° 0 mm 1 m/S 750 mmHg 76%
    14:00 -2°C° 0 mm 2 m/S 750 mmHg 75%
    15:00 -3°C° 0 mm 2 m/S 750 mmHg 79%
    16:00 -3°C° 0 mm 2 m/S 750 mmHg 82%
    17:00 -3°C° 0 mm 2 m/S 750 mmHg 86%
    18:00 -4°C° 0 mm 3 m/S 750 mmHg 85%
    19:00 -4°C° 0 mm 3 m/S 749 mmHg 85%
    20:00 -2°C° 0 mm 3 m/S 749 mmHg 84%
    21:00 -2°C° 0 mm 3 m/S 749 mmHg 83%
    22:00 -3°C° 0 mm 4 m/S 748 mmHg 82%
    23:00 -3°C° 0 mm 4 m/S 748 mmHg 81%

    24 November, Samstag

    Zeit Temperatur Niederschläge Wind Luftdruck Luftfeuchtigkeit
    00:00 -3°C° 0 mm 4 m/S 747 mmHg 81%
    01:00 -4°C° 0 mm 5 m/S 747 mmHg 80%
    02:00 -4°C° 0 mm 5 m/S 747 mmHg 80%
    03:00 -4°C° 0 mm 5 m/S 746 mmHg 79%
    04:00 -4°C° 0 mm 5 m/S 746 mmHg 78%
    05:00 -4°C° 0 mm 5 m/S 745 mmHg 78%
    06:00 -4°C° 0 mm 5 m/S 745 mmHg 78%
    07:00 -5°C° 0 mm 5 m/S 744 mmHg 79%
    08:00 -5°C° 0 mm 5 m/S 744 mmHg 80%
    09:00 -5°C° 0 mm 5 m/S 744 mmHg 79%
    10:00 -5°C° 0 mm 5 m/S 743 mmHg 77%
    11:00 -5°C° 0 mm 5 m/S 743 mmHg 76%
    12:00 -5°C° 0 mm 5 m/S 743 mmHg 75%
    13:00 -4°C° 0 mm 4 m/S 742 mmHg 75%
    14:00 -4°C° 0 mm 4 m/S 742 mmHg 74%
    15:00 -4°C° 0 mm 4 m/S 741 mmHg 75%
    16:00 -4°C° 0 mm 4 m/S 741 mmHg 76%
    17:00 -5°C° 0 mm 4 m/S 741 mmHg 77%
    18:00 -5°C° 0 mm 4 m/S 740 mmHg 77%
    19:00 -4°C° 0 mm 4 m/S 740 mmHg 78%
    20:00 -4°C° 0 mm 4 m/S 740 mmHg 79%
    21:00 -4°C° 0.1 mm 3 m/S 740 mmHg 81%
    22:00 -4°C° 0.1 mm 3 m/S 740 mmHg 83%
    23:00 -4°C° 0.1 mm 3 m/S 740 mmHg 85%

    25 November, Sonntag

    Zeit Temperatur Niederschläge Wind Luftdruck Luftfeuchtigkeit
    00:00 -4°C° 0.1 mm 3 m/S 740 mmHg 86%
    01:00 -4°C° 0.1 mm 3 m/S 740 mmHg 87%
    02:00 -4°C° 0.1 mm 3 m/S 740 mmHg 89%
    03:00 -3°C° 0 mm 2 m/S 740 mmHg 89%
    04:00 -3°C° 0 mm 2 m/S 740 mmHg 88%
    05:00 -3°C° 0 mm 2 m/S 740 mmHg 88%
    06:00 -3°C° 0 mm 2 m/S 741 mmHg 89%
    07:00 -3°C° 0 mm 2 m/S 741 mmHg 90%
    08:00 -1°C° 0 mm 1 m/S 741 mmHg 91%
    09:00 -1°C° 0 mm 1 m/S 741 mmHg 88%
    10:00 0°C° 0 mm 1 m/S 742 mmHg 85%
    11:00 0°C° 0 mm 1 m/S 742 mmHg 81%
    12:00 0°C° 0 mm 1 m/S 742 mmHg 81%
    13:00 0°C° 0 mm 1 m/S 742 mmHg 81%
    14:00 -1°C° 0 mm 0 m/S 742 mmHg 80%
    15:00 -2°C° 0 mm 0 m/S 742 mmHg 83%
    16:00 -3°C° 0 mm 0 m/S 742 mmHg 85%
    17:00 -3°C° 0 mm 0 m/S 742 mmHg 88%
    18:00 -3°C° 0 mm 0 m/S 741 mmHg 88%
    19:00 -3°C° 0 mm 0 m/S 741 mmHg 88%
    20:00 -4°C° 0 mm 0 m/S 741 mmHg 88%
    21:00 -3°C° 0 mm 0 m/S 741 mmHg 88%
    22:00 -3°C° 0 mm 0 m/S 740 mmHg 88%
    23:00 -3°C° 0 mm 0 m/S 740 mmHg 88%

    26 November, Montag

    Zeit Temperatur Niederschläge Wind Luftdruck Luftfeuchtigkeit
    00:00 -3°C° 0.1 mm 0 m/S 740 mmHg 89%
    01:00 -3°C° 0.1 mm 0 m/S 739 mmHg 89%
    02:00 -3°C° 0.1 mm 0 m/S 739 mmHg 90%
    03:00 -3°C° 0.2 mm 0 m/S 739 mmHg 90%
    04:00 -3°C° 0.2 mm 1 m/S 738 mmHg 91%
    05:00 -3°C° 0.2 mm 1 m/S 738 mmHg 92%
    06:00 -3°C° 0.1 mm 1 m/S 738 mmHg 92%
    07:00 -3°C° 0.1 mm 1 m/S 738 mmHg 92%
    08:00 -5°C° 0.1 mm 2 m/S 738 mmHg 91%
    09:00 -5°C° 0 mm 2 m/S 738 mmHg 88%
    10:00 -6°C° 0 mm 3 m/S 738 mmHg 86%
    11:00 -6°C° 0 mm 3 m/S 738 mmHg 83%
    12:00 -5°C° 0 mm 3 m/S 738 mmHg 81%
    13:00 -5°C° 0 mm 3 m/S 738 mmHg 78%
    14:00 -5°C° 0 mm 3 m/S 738 mmHg 76%
    15:00 -5°C° 0 mm 3 m/S 739 mmHg 77%
    16:00 -6°C° 0 mm 3 m/S 739 mmHg 78%
    17:00 -6°C° 0 mm 3 m/S 739 mmHg 78%
    18:00 -5°C° 0 mm 2 m/S 739 mmHg 80%
    19:00 -6°C° 0 mm 2 m/S 740 mmHg 83%
    20:00 -6°C° 0 mm 2 m/S 740 mmHg 85%
    21:00 -7°C° 0 mm 2 m/S 740 mmHg 87%
    22:00 -7°C° 0 mm 2 m/S 740 mmHg 88%
    23:00 -6°C° 0 mm 1 m/S 741 mmHg 90%
    Mehr zeigen